Regional Weather Roundup
Issued by NWS Sterling, VA

Home | Current Version | Previous Version | Graphics & Text | Print | Product List | Glossary On
Versions: 1 2 3 4 5 6 7 8 9 10 11 12 13 14 15 16 17 18 19 20 21 22 23 24 25 26 27 28 29 30 31 32 33 34 35 36 37 38 39 40 41 42 43 44 45 46 47 48 49 50
000
ASUS41 KLWX 162310
RWRLWX

REGIONAL WEATHER ROUNDUP
NATIONAL WEATHER SERVICE BALTIMORE MD/WASHINGTON DC
700 PM EDT TUE SEP 16 2014

Note: "FAIR" indicates few or no clouds below 12,000 feet
with no significant weather and/or obstructions to visibility.
 TC=TEMPERATURE CELSIUS

 * =Non NWS site. Station does not report precipitation (e.g. rain,
    snow, etc.), thunder, or fog.

DCZ001-MDZ009-015-VAZ040>042-051-053>054-170000-
WASHINGTON METRO

CITY           SKY/WX    TMP DP  RH WIND       PRES   REMARKS
WASHINGTON NAT PTCLDY    75  49  39 N13       30.00S
DULLES         PTCLDY    70  49  47 N10       30.01S
ANDREWS AFB    CLEAR     68  54  60 N9        29.99S
QUANTICO       PTCLDY    73  52  47 N9        30.00R
COLLEGE PARK*  CLEAR     72  52  49 N6        30.00S
LEESBURG*      PTCLDY    70  54  56 N6        30.02S
GAITHERSBURG*  PTCLDY    66  52  59 CALM      30.05S

$$

MDZ006>007-011-014-170000-
BALTIMORE METRO

CITY           SKY/WX    TMP DP  RH WIND       PRES   REMARKS
BWI AIRPORT    MOCLDY    69  52  54 VRB3      30.00R
MD SCIENCE CTR   N/A     72  50  45 MISG      30.01R
ANNAPOLIS      CLEAR     73  54  51 N5        29.99S
FORT MEADE*    PTCLDY    64  54  68 N3        30.02S

$$

MDZ012-015-019>023-170000-
MARYLAND EASTERN SHORE

CITY           SKY/WX    TMP DP  RH WIND       PRES   REMARKS
OCEAN CITY     MOCLDY    72  56  57 NE7       29.97S
SALISBURY      CLEAR     72  56  57 NW6       29.98S
BAY BRIDGE AP*   N/A     70  52  52 N6        29.99S
CAMBRIDGE*     CLEAR     72  54  53 N3        29.98S
EASTON*        PTCLDY    72  57  60 N5        30.03R

$$

MDZ017>025-170000-
SOUTHERN MARYLAND

CITY           SKY/WX    TMP DP  RH WIND       PRES   REMARKS
PATUXENT RIVER PTCLDY    72  53  51 N7        29.98S
ST INIGOES     CLEAR     71  56  58 NE3       29.98R
LEONARDTOWN*   CLEAR     72  50  46 CALM      30.00S

$$

MDZ003>005-170000-
NORTH CENTRAL MARYLAND

CITY           SKY/WX    TMP DP  RH WIND       PRES   REMARKS
FREDERICK*     MOCLDY    72  54  53 VRB5      30.04S
HAGERSTOWN APT MOCLDY    67  50  54 NE7       30.03R
WESTMINSTER*   CLOUDY    66  52  59 CALM      30.03S

$$

MDZ501>502-170000-
WESTERN MARYLAND

CITY           SKY/WX    TMP DP  RH WIND       PRES   REMARKS
OAKLAND*       CLEAR     54  48  82 CALM      30.10F
CUMBERLAND*    PTCLDY    70  45  40 NW5       30.07F

$$

VAZ025>031-170000-
SHENANDOAH VALLEY

CITY           SKY/WX    TMP DP  RH WIND       PRES   REMARKS
WINCHESTER*    MOCLDY    70  45  40 N5        30.02S
STAUNTON*      CLOUDY    71  47  41 N6        30.03S

$$

WVZ021-048>050-054>055-170000-
EASTERN WEST VIRGINIA PANHANDLE

CITY           SKY/WX    TMP DP  RH WIND       PRES   REMARKS
MARTINSBURG    MOCLDY    69  48  47 N7        30.03S
PETERSBURG*    PTCLDY    68  46  44 NW6       30.05R

$$

VAZ036>039-050-170000-
CENTRAL FOOTHILLS

CITY           SKY/WX    TMP DP  RH WIND       PRES   REMARKS
CHARLOTTESVILL CLOUDY    71  54  54 N3        29.99S
ORANGE*        MOCLDY    70  54  56 CALM      30.01S

$$

VAZ055>057-170000-
NORTH AND CENTRAL PIEDMONT

CITY           SKY/WX    TMP DP  RH WIND       PRES   REMARKS
FREDERICKSBRG* CLEAR     74  54  49 NE6       29.98S
STAFFORD*      CLEAR     71  55  56 CALM      30.03S

$$

NCZ024-NYZ072-PAZ021-071-VAZ022-071-170000-
OTHER REGIONAL OBSERVATIONS

CITY           SKY/WX    TMP DP  RH WIND       PRES   REMARKS
NEW YORK CITY  MOCLDY    67  49  52 NE6       30.01R
PHILADELPHIA   PTCLDY    70  51  51 N9        29.99S
PITTSBURGH     PTCLDY    63  50  62 W5        30.06F
ROANOKE        PTCLDY    72  57  59 NW9       30.01S
RICHMOND       PTCLDY    75  59  57 NE8       29.97S
RALEIGH        MOCLDY    75  64  68 E7        29.96S

$$

ANZ530>537-170000-
MARINE OBSERVATIONS

STATION/POSITION TIME  TEMP    WIND        PRES
                       AIR SEA DIR/SP/G
                 (UTC) (F)     (DEG/KT/KT) (MB)
THOMAS PT LIGHT  2300   72 75  340/  8/  9 1016.5R
BALT KEY BRIDGE  2300   72     330/ 11/ 12 1015.7R
COVE POINT       2300   73      20/ 11/ 13 1014.9F
LEWISETTA        2300   74 74   60/  6/  9 1014.8R
SOLOMONS ISLAND  2300      77                N/A
PINEY POINT      2300           20/  7/  8   N/A

$$




USA.gov is the U.S. government's official web portal to all federal, state and local government web resources and services.